Regional Weather Roundup
Issued by NWS

Home | Current Version | Previous Version | Text Only | Print | Product List | Glossary Off
Versions: 1 2 3 4 5 6 7 8 9 10 11 12 13 14 15 16 17 18 19 20 21 22 23 24 25 26 27 28 29 30 31 32 33 34 35 36 37 38 39 40 41 42 43 44 45 46 47 48 49 50

000
ASUS45 KCYS 241210
RWRWY

WYOMING REGIONAL WEATHER ROUNDUP
NATIONAL WEATHER SERVICE CHEYENNE WY
500 AM MST SAT JAN 24 2015

NOTE:  "FAIR" INDICATES FEW OR NO CLOUDS BELOW 12,000 FEET
WITH NO SIGNIFICANT WEATHER AND/OR OBSTRUCTIONS TO VISIBILITY.

WYZ001-241300-
YELLOWSTONE NATIONAL PARK

CITY           SKY/WX    TMP DP  RH WIND       PRES   REMARKS
LK YELLOWSTONE   N/A     11   8  88 CALM      30.36R
6HR MIN TEMP:   2; 6HR MAX TEMP:  11;

W YELLOWSTONE  NOT AVBL

$$
WYZ002>013-054>058-071-098>099-241300-
NORTHERN WYOMING

CITY           SKY/WX    TMP DP  RH WIND       PRES   REMARKS
JACKSON        CLOUDY     7   7 100 E5        30.40S WCI  -2
CODY           FAIR      45  21  39 W21G36    30.05F
GREYBULL       CLOUDY    16  13  88 CALM      30.12F
6HR MIN TEMP:   8; 6HR MAX TEMP:  16;

WORLAND        MOCLDY    13   9  84 NW3       30.13R
6HR MIN TEMP:   7; 6HR MAX TEMP:  18;

SHERIDAN       FAIR      29  21  72 SW6       29.93F WCI  23
6HR MIN TEMP:  21; 6HR MAX TEMP:  32;

BUFFALO        MOCLDY    36  18  48 CALM      29.96R
6HR MIN TEMP:  28; 6HR MAX TEMP:  42;

GILLETTE       CLOUDY    38  22  52 SW18      29.93F WCI  28
6HR MIN TEMP:  32; 6HR MAX TEMP:  38;

HULETT           N/A    N/A N/A N/A MISG        N/A
NEWCASTLE      FAIR      27  21  80 CALM      29.98F

$$
WYZ014>020-022>026-101>103-241300-
CENTRAL WYOMING

CITY           SKY/WX    TMP DP  RH WIND       PRES   REMARKS
BIG PINEY      FAIR       4   0  83 CALM      30.31F
6HR MIN TEMP:   2; 6HR MAX TEMP:   9;

PINEDALE       FAIR       9   7  92 CALM      30.30F
DUBOIS         FAIR      34  19  55 W21G38    30.20S WCI  22
LANDER         FAIR      19  14  81 CALM      30.10F
6HR MIN TEMP:  12; 6HR MAX TEMP:  25;

RIVERTON       FAIR      17  14  88 VRB5      30.11F WCI  10
6HR MIN TEMP:  13; 6HR MAX TEMP:  23;

CASPER         FAIR      32  19  58 SW30G40   30.08F WCI  18
6HR MIN TEMP:  29; 6HR MAX TEMP:  32;

DOUGLAS        FAIR      30  21  69 N9        30.01F WCI  22
6HR MIN TEMP:  20; 6HR MAX TEMP:  30;


$$
WYZ021-027>030-104>119-241300-
SOUTHERN WYOMING

CITY           SKY/WX    TMP DP  RH WIND       PRES   REMARKS
EVANSTON       FAIR      16  12  84 SW13      30.40F WCI   2
6HR MIN TEMP:  15; 6HR MAX TEMP:  21;

FORT BRIDGER   FAIR      25  18  72 W18G24    30.40S WCI  12
ROCK SPRINGS   FAIR      22  16  78 W18       30.33S WCI   7
6HR MIN TEMP:  21; 6HR MAX TEMP:  24;

DIXON          FAIR      17   9  71 CALM      30.39S
RAWLINS        FAIR      24  16  71 SW9       30.24F WCI  14
6HR MIN TEMP:  20; 6HR MAX TEMP:  27;

SARATOGA       FAIR      19  12  73 S12       30.27F WCI   7
LARAMIE        FAIR      16   9  74 SE9       30.14F WCI   4
6HR MIN TEMP:   9; 6HR MAX TEMP:  19;

CHEYENNE       FAIR      33  12  41 W20G25    30.05F WCI  21
6HR MIN TEMP:  31; 6HR MAX TEMP:  34;

TORRINGTON     FAIR      35  20  54 W14       30.00F WCI  26
6HR MIN TEMP:  25; 6HR MAX TEMP:  36;

PINE BLUFFS    FAIR      23  16  74 S7        30.05F WCI  15

$$



USA.gov is the U.S. government's official web portal to all federal, state and local government web resources and services.